Theta_e
339 333 336 337 336 336 336 337 338 337 336 334 334 333 333 332 329 331 329 330 330 329 329 329 328 329 328 328 329 328 327 327 325 325 326 325 328 331 327 325 324 327 331
338 335 337 334 330 334 335 335 336 336 336 334 334 333 332 332 331 330 329 329 328 329 328 327 327 327 327 327 327 324 323 323 325 325 323 324 325 325 325 326 325 325 326
339 337 335 331 328 332 331 332 333 335 336 336 334 332 330 331 331 330 329 328 327 328 327 327 327 326 326 326 325 322 322 322 324 324 323 323 324 324 324 323 323 323 323
337 338 334 329 330 331 331 330 332 333 335 334 333 331 330 330 331 329 329 328 328 327 327 325 325 325 325 324 321 321 321 322 323 322 321 321 323 323 323 323 322 322 322
338 337 331 330 329 328 330 329 330 331 330 331 331 330 329 331 330 329 329 328 328 327 326 325 324 325 324 319 318 320 321 322 322 321 321 321 322 323 323 323 322 321 322
338 336 329 330 331 329 329 330 333 329 330 329 330 329 331 330 329 328 327 327 327 326 326 325 324 322 319 315 318 319 320 320 321 322 322 322 324 324 324 323 323 322 322
336 332 327 327 332 332 328 329 331 333 330 328 329 330 329 329 327 326 326 327 327 325 325 325 324 319 316 316 318 319 320 321 322 322 322 324 324 325 325 325 325 324 324
335 333 326 329 333 334 330 325 328 332 332 327 324 326 328 328 327 325 326 326 326 325 325 322 318 317 316 316 318 320 320 321 321 321 321 323 324 326 326 325 326 326 326
335 333 329 330 333 334 333 328 327 330 330 329 327 326 326 325 325 325 325 325 325 325 320 318 318 317 317 317 319 320 321 321 321 321 319 319 324 325 326 326 327 327 328
335 334 332 330 330 332 333 330 324 328 330 330 325 323 325 324 323 323 322 321 319 318 317 317 317 317 317 318 321 322 322 322 322 322 321 320 323 325 326 326 326 327 326
335 336 333 330 330 329 331 330 325 323 327 329 323 325 326 326 325 326 320 318 317 317 318 318 318 322 322 322 322 323 323 323 323 322 322 321 322 326 325 325 326 325 325
335 336 334 332 330 329 327 328 327 323 325 327 325 328 326 326 324 317 317 317 318 318 318 319 321 323 323 323 323 323 323 323 323 323 323 321 321 325 325 324 324 322 321
333 334 335 332 330 329 326 327 326 324 328 327 328 328 327 324 323 322 323 322 321 322 323 324 323 323 322 323 323 323 324 324 324 323 323 321 321 324 324 321 318 317 317
331 333 333 335 330 328 328 327 322 325 326 327 328 327 326 325 325 324 325 325 325 325 325 325 324 324 324 324 324 324 325 325 324 324 321 320 320 319 316 313 314 315 314
330 332 332 335 331 328 328 327 325 324 325 326 327 326 325 324 324 325 325 326 325 325 326 326 326 326 325 324 324 324 324 324 323 322 321 319 315 311 312 312 312 312 313
329 330 331 333 332 329 327 326 326 325 323 322 323 324 325 325 324 325 325 326 326 326 326 326 325 323 323 323 323 324 324 323 322 321 320 317 314 310 307 308 310 311 310
330 329 330 331 332 331 327 326 324 324 324 323 324 325 324 325 325 326 326 326 326 326 325 324 324 324 322 321 323 322 322 322 321 318 317 315 312 304 302 307 308 306 305
332 330 328 330 330 331 329 326 325 324 324 325 326 326 324 325 325 325 326 326 326 326 326 325 325 321 320 320 321 321 320 321 318 317 313 311 303 301 300 303 303 302 301
332 330 330 328 328 330 330 327 325 325 324 325 326 326 326 326 325 326 325 325 325 325 324 323 321 320 320 320 321 320 320 320 316 314 311 305 299 299 301 302 300 297 298
332 330 329 329 327 329 330 328 327 326 325 325 326 327 327 326 324 323 324 322 322 321 321 321 320 320 320 321 320 320 319 318 314 311 305 297 298 298 299 300 297 292 296
329 325 325 328 328 329 330 328 328 327 326 326 327 328 327 326 324 323 323 322 321 321 321 321 322 321 320 321 319 318 318 314 311 307 302 297 298 298 297 293 292 291 291
333 330 324 324 326 327 328 328 328 327 326 326 328 329 328 327 324 324 323 323 321 321 322 323 323 322 320 319 319 319 315 313 310 308 302 297 297 298 297 294 291 291 291
333 333 331 324 324 324 327 327 327 327 327 328 329 330 329 326 325 325 325 324 324 323 323 323 323 323 321 321 318 318 312 311 309 307 303 296 297 297 297 294 291 291 290
333 333 333 331 324 324 325 326 327 328 329 330 329 329 328 326 325 325 325 325 325 324 324 324 324 324 321 320 318 315 313 310 303 304 300 296 296 297 296 294 291 290 290
333 333 334 333 329 325 325 326 328 330 330 330 330 331 330 327 326 325 325 326 326 325 325 324 325 323 320 320 319 311 307 303 304 302 298 296 296 296 296 293 291 290 289
331 333 334 334 333 330 326 326 328 330 330 330 330 331 330 329 327 326 326 326 326 325 325 325 325 321 319 318 317 313 303 302 302 298 297 297 295 296 295 294 292 290 289
Wind_Speed
13 13 12 9 9 11 13 14 15 16 16 17 19 19 20 19 19 19 21 21 21 21 21 20 20 19 21 20 21 22 21 21 23 21 23 22 22 24 22 22 24 23 23
15 15 12 8 9 11 11 13 13 13 16 17 17 19 17 18 20 19 20 19 21 20 20 20 19 18 18 19 19 20 22 19 15 21 22 22 21 22 20 22 20 20 19
17 16 12 10 11 11 10 10 12 11 14 16 17 18 16 19 19 19 19 18 19 19 19 19 19 19 19 18 19 20 22 20 19 19 21 21 21 18 20 18 18 18 19
16 16 13 14 15 13 11 13 14 13 16 17 16 16 15 16 19 18 18 17 17 18 18 19 18 18 19 19 21 22 22 21 18 21 21 19 19 18 18 17 17 17 17
18 15 15 16 17 16 15 14 14 15 16 18 15 14 14 17 16 17 17 16 16 16 17 18 18 17 17 17 20 21 21 21 18 18 16 17 18 17 17 18 17 17 16
18 12 16 16 15 16 16 15 14 17 16 14 15 13 15 15 15 16 15 15 16 16 16 16 17 17 17 18 19 18 18 19 16 16 17 19 19 17 17 17 16 16 16
17 14 16 15 13 14 16 15 12 13 15 16 13 13 14 14 16 15 14 15 15 14 14 14 15 16 17 18 19 19 20 18 17 15 16 19 17 16 16 16 16 16 15
18 14 16 16 13 16 16 15 13 13 13 10 11 12 13 14 14 14 14 14 14 13 13 14 15 15 15 17 17 17 18 16 15 15 14 15 16 15 15 16 15 15 16
20 15 14 15 15 15 16 15 16 13 12 12 11 12 12 12 13 13 12 12 12 11 12 13 14 15 15 16 17 18 17 15 13 10 15 15 16 15 15 15 16 17 18
19 16 16 13 14 16 16 14 15 14 12 13 12 11 12 12 11 10 10 11 11 11 11 11 12 14 15 15 15 14 14 12 12 8 15 15 15 15 15 16 18 19 20
18 18 18 15 14 13 16 15 15 15 11 11 12 13 11 10 6 8 7 10 11 11 10 10 11 11 11 12 14 13 11 11 10 7 13 16 15 15 15 16 18 20 21
15 20 18 19 18 15 14 16 15 15 13 12 12 10 11 10 5 8 9 9 9 9 9 10 9 9 8 9 10 10 10 10 10 9 12 16 15 15 16 17 19 20 20
16 16 20 18 16 18 14 16 16 17 13 9 9 10 9 9 7 6 7 7 7 7 6 7 7 4 7 6 6 8 9 9 9 8 11 14 15 16 17 18 18 18 18
20 17 20 18 16 14 16 18 15 17 17 15 14 11 10 7 8 6 5 4 4 2 3 4 3 5 5 5 6 7 8 9 9 8 9 12 15 17 17 18 18 19 20
21 18 21 18 19 16 16 16 18 15 16 13 13 12 9 8 8 8 7 5 4 4 2 2 2 3 4 6 6 6 6 7 7 7 7 10 12 17 19 19 19 19 20
24 22 24 22 21 17 16 15 16 17 16 16 13 14 13 9 9 9 7 6 5 4 2 2 2 2 4 4 5 5 6 5 7 7 6 9 12 13 17 20 20 20 20
26 23 27 25 23 19 18 17 16 14 16 16 16 14 16 14 13 10 8 6 4 4 4 3 2 3 4 5 6 5 6 3 6 8 10 9 11 13 17 21 20 20 21
22 25 26 30 27 21 20 20 17 16 15 15 14 15 15 14 12 12 9 7 7 5 3 2 3 2 5 5 4 6 4 2 10 9 9 11 12 11 14 16 17 20 21
24 25 27 30 33 27 21 19 20 20 20 19 18 15 14 14 13 11 10 8 8 6 5 5 3 4 5 5 6 5 5 7 10 10 11 9 9 10 12 14 14 17 19
26 26 26 27 29 32 24 23 23 23 21 21 21 19 17 15 14 14 13 11 10 8 7 7 5 4 5 2 3 2 7 10 10 14 11 9 9 10 10 9 9 13 16
26 28 30 28 28 29 28 27 25 26 24 23 22 21 20 19 18 17 16 14 10 11 10 9 6 5 3 3 2 9 12 9 11 10 6 10 9 8 8 10 13 14 14
30 32 32 32 32 33 31 32 28 27 26 26 23 23 24 22 20 20 19 17 15 15 14 12 10 7 5 4 3 3 2 6 10 7 5 9 9 5 8 9 14 14 14
33 35 35 35 35 35 31 29 25 22 23 24 24 25 26 24 23 22 21 20 18 15 16 14 13 12 7 6 5 4 2 3 8 10 6 6 7 8 8 6 11 12 12
34 33 36 35 36 35 33 29 30 29 26 26 30 30 30 29 27 26 24 23 21 19 18 18 16 13 11 11 8 9 8 5 3 3 7 7 7 7 6 3 7 10 10
33 38 38 37 37 36 38 35 33 29 27 27 27 27 30 31 31 28 26 25 25 23 21 20 19 15 14 13 14 9 9 7 7 3 3 7 10 7 4 2 5 8 9
33 34 35 36 37 38 39 40 34 32 29 27 30 30 31 32 33 32 32 28 26 25 25 23 19 17 16 17 18 17 14 7 8 5 3 4 8 7 3 1 4 7 7
Wind_Direction
133 132 125 111 105 108 105 104 100 104 103 95 92 91 88 83 83 82 78 77 75 71 71 71 72 72 74 74 77 78 78 77 73 72 68 64 67 59 67 63 60 55 57
133 130 123 112 109 113 113 110 110 104 103 101 95 95 91 87 84 82 80 79 76 73 72 72 73 75 75 75 76 82 83 81 82 66 62 67 66 62 60 59 56 56 52
134 126 122 114 115 116 113 115 119 110 109 105 102 102 91 90 84 82 85 81 78 77 74 72 72 74 75 76 77 83 84 71 69 82 68 63 62 62 58 60 57 54 53
124 127 131 121 116 117 110 111 117 122 113 109 104 99 98 92 88 86 83 84 82 79 74 71 74 76 76 77 85 91 84 73 62 75 69 66 63 59 57 56 53 51 50
129 142 131 124 121 119 122 118 126 119 117 113 107 104 101 91 90 87 86 84 85 81 77 74 74 78 75 78 90 90 80 71 71 65 72 71 63 56 53 50 48 46 45
128 140 132 131 129 121 123 114 119 123 121 120 117 112 98 94 95 90 87 85 88 85 80 77 77 78 76 80 91 82 77 76 73 74 64 64 58 52 47 44 41 39 37
127 132 134 141 133 131 122 126 123 121 118 118 114 103 96 98 98 93 89 88 91 90 84 79 79 78 78 81 90 87 81 74 71 58 65 64 53 48 44 37 34 31 28
136 134 133 136 126 138 125 130 132 108 121 111 110 105 106 105 102 98 91 93 96 93 87 84 82 81 79 79 83 80 73 75 71 65 50 63 53 37 32 23 20 16 11
139 146 145 142 135 127 135 132 140 128 121 121 107 106 108 112 110 106 103 101 102 100 91 84 82 80 78 78 80 77 74 68 61 57 42 43 47 33 27 18 13 13 17
150 150 146 152 144 141 138 137 138 144 124 121 111 111 112 103 97 90 108 106 104 102 94 87 83 79 72 67 67 59 57 60 57 48 28 34 37 27 23 19 17 22 28
158 158 159 151 151 156 154 148 140 150 144 134 118 104 94 95 108 127 119 110 104 98 92 85 81 72 60 49 48 52 48 52 46 26 24 25 29 26 29 30 34 35 32
172 167 166 160 160 158 167 161 158 150 151 156 137 116 124 145 131 126 117 111 103 91 80 76 66 53 45 43 37 39 35 38 39 25 21 16 35 40 43 41 40 34 33
174 166 169 167 167 164 163 155 166 154 152 162 153 156 180 164 125 103 92 91 88 74 55 48 47 47 60 61 51 37 32 40 39 23 19 16 51 51 53 44 40 40 40
187 178 173 172 169 176 171 169 165 169 175 173 178 171 168 152 152 165 140 153 112 109 85 86 20 49 48 26 14 32 30 33 40 26 19 25 68 59 52 49 47 46 45
177 188 183 174 172 182 184 178 173 178 175 175 179 173 164 184 166 161 167 153 160 123 111 78 56 42 28 7 6 8 24 30 41 34 28 40 56 63 57 54 53 52 53
178 186 187 184 181 183 187 190 182 185 172 183 182 177 170 183 176 180 174 178 163 155 178 173 139 38 19 331 7 341 29 43 53 67 61 53 51 47 53 57 59 59 53
182 187 192 188 188 186 184 189 189 191 187 185 183 189 183 183 179 184 183 188 189 204 198 156 89 328 346 349 349 22 17 51 78 94 86 75 61 38 45 65 67 62 54
183 190 197 192 192 193 192 192 186 195 195 187 194 201 192 183 192 180 186 191 204 192 175 211 231 339 343 332 338 356 12 102 104 108 113 107 76 48 49 62 67 60 49
191 194 197 198 193 195 194 196 192 197 199 193 196 209 202 198 191 193 195 201 194 181 200 225 286 321 320 333 359 351 106 97 117 111 103 81 66 68 66 60 51 53 51
191 196 198 201 202 195 197 198 199 202 205 199 199 196 202 212 205 199 194 200 212 223 237 243 263 282 302 320 340 69 108 120 111 119 111 81 69 75 85 91 62 52 51
194 198 199 194 199 200 204 201 203 204 203 204 205 203 204 210 208 207 206 205 212 227 232 246 240 263 260 281 4 114 119 124 131 132 114 82 73 66 66 73 52 46 43
199 199 199 201 201 202 200 206 206 206 209 210 210 212 208 216 213 215 219 218 213 226 225 234 240 233 243 248 181 177 143 140 132 150 125 91 94 77 63 53 39 44 41
203 199 201 201 204 204 204 204 204 209 209 211 213 212 215 219 219 221 225 229 231 231 232 234 239 225 208 203 216 191 148 202 143 147 144 104 106 106 82 56 35 45 45
204 205 202 205 206 206 204 202 200 201 203 207 210 219 222 221 221 223 227 226 231 235 236 240 237 234 222 198 194 213 212 176 163 145 135 119 126 130 119 76 42 40 44
202 205 205 205 208 206 206 204 204 206 209 209 211 217 225 226 224 227 228 227 225 229 234 235 234 230 222 218 207 185 197 198 198 146 162 152 124 130 131 106 38 39 37
203 207 207 206 209 209 209 208 209 208 208 209 211 213 222 224 222 225 229 227 228 231 232 232 228 225 227 224 222 217 199 178 187 174 142 156 160 159 187 208 21 33 34